Starlink 33564

operational
NORAD ID: 62286 Int'l Des: 2024-237 Owner: SPXS Country: US Constellation: starlink
LEOCIRCULAR

Über Starlink 33564

Beschreibung wird geladen...

Live-Position

3D-Globus wird geladen...

Nächste Überflüge

Höhenverlauf

Altitude vs Time

uPlot chart will show altitude changes over time

Zweizeiliger Elementsatz

1 62286U 24237V 25305.48811437 .00026529 00000-0 97041-3 0 9991
2 62286 43.0013 220.5107 0001186 288.7390 71.3333 15.27569489 51582
Epoch: 1. Nov. 2025 • Age: 21 hours

Aktueller Status

Höhe 490.0 km
Geschwindigkeit 7.62 km/s
Subsatellitenpunkt -28.28°S, 107.75°W
Startdatum 8. Dez. 2024
Alter 0.9 years
Typ internet

Technische Details

Klassifizierung Payload
Masse 530.00 kg
Trockenmasse 500.00 kg
Gesamtmasse 530.00 kg
Länge 0.30 m
Durchmesser 4.10 m
Spannweite 29.00 m
Form Box + pan
Hersteller SPXS
Bus-Typ Starlink V2MO
Phasenstatus In Orbit
Besitzer/Staat SPXS/US

Große Konstellationen

Loading constellations...